map of FUN home
Great Circle Mapper logo
FUN - Airport
Location
City:  Funafuti Atoll, Tuvalu
Name:Funafuti Atoll International Airport
ICAO:NGFU
IATA:FUN

Details
Type:Airport (Aerodrome, Airfield)
Use:International (customs port of entry)
Latitude:831'30"S (-8.524999)
Longitude:17911'47"E (179.196389)
Elevation:9 ft (3 m)
Variation:10.58E (WMM2015 magnetic declination)
0.04 annual change
Runways:1
Longest:5000 ft (1524 m)

Time
Time Zone:UTC+12
Local Time:

Weather
METAR:NGFU 281300Z 13008KT 9999 SCT019TCU 28/26 Q1011

Related Locations
Nearby:
Farthest:WAPQ: 12376 mi / 19917 km
John Becker [John Becker Airport], ML, ID

Find:

   beyond  
but within

Other Information
Maps:
NOTAMs:
Links:
Sources:

  
flag of Tuvalu   

Sectional Chart

Flight Planning
at skyvector.com

Satellite Image

Google Maps Satellite view

 

Copyright © 2004-2016 Karl L. Swartz. All rights reserved.
The Great Circle Mapper name and logo are trademarks of the Great Circle Mapper.
All other trademarks mentioned herein belong to their respective owners.
Please see credits for attibutions and further copyright information.

  Follow gcmap on Facebook Follow gcmap on Twitter Follow gcmap on Google+ GCmap on LinkedIn

hCard Microformat

Geo Microformat